Home   Weather   Starnberg   Past weeks
Flag for Germany

Past Weather in Starnberg, Bavaria, Germany — Yesterday and Last 2 Weeks

Now
54 °F

Low clouds.


Feels Like: 53 °F
Forecast: 65 / 47 °F
Wind: 5 mph from Northeast

Location: Oberpfaffenhofen

Current Time: Oct 22, 2019 at 10:11:50 pm

Latest Report: Oct 22, 2019 at 9:50 pm


Visibility: 3 mi

Pressure: 30.18 "Hg (28.12 "Hg at 590m altitude)

Humidity: 94%

Dew Point: 52 °F

Location of StarnbergLocation

Past Weather in Starnberg — Graph

°F

Starnberg Temperature Yesterday

Maximum temperature yesterday: 66 °F (at 12:20 am)
Minimum temperature yesterday: 52 °F (at 6:20 am)
Average temperature yesterday: 58 °F

High & Low Weather Summary for the Past Weeks

 TemperatureHumidityPressure
High75 °F (Oct 13, 2:50 pm)100% (Oct 7, 8:50 pm)30.24 "Hg (Oct 7, 8:50 pm)
Low37 °F (Oct 7, 11:20 pm)36% (Oct 15, 2:50 pm)29.68 "Hg (Oct 15, 4:50 pm)
Average54 °F79%30.01 "Hg
* Reported Oct 7 8:20 pm — Oct 22 8:50 pm, Starnberg. Weather by CustomWeather, © 2019

Note: Actual official high and low records may vary slightly from our data, if they occured in-between our weather recording intervals... More about our weather records

Advertising

Starnberg Weather History for the Previous 24 Hours

Scroll right to see more
 ConditionsComfort  
Time TempWeatherWind HumidityBarometerVisibility
8:50 pm
Tue, Oct 22
52 °FLow clouds.2 mph100%30.18 "Hg3 mi
8:20 pm52 °FFog.5 mph100%30.21 "Hg3 mi
7:50 pm52 °FFog.3 mph100%30.21 "Hg3 mi
7:20 pm52 °FFog.3 mph100%30.21 "Hg2 mi
6:50 pm52 °FFog.5 mph100%30.21 "Hg3 mi
6:20 pm54 °FFog.2 mph94%30.21 "Hg3 mi
5:50 pm54 °FFog.2 mph94%30.21 "Hg2 mi
5:20 pm54 °FFog.3 mph94%30.21 "Hg3 mi
4:50 pm54 °FFog.3 mph94%30.21 "Hg2 mi
4:20 pm54 °FFog.2 mph94%30.21 "Hg2 mi
3:50 pm54 °FFog.6 mph94%30.21 "Hg2 mi
3:20 pm54 °FFog.5 mph94%30.21 "Hg3 mi
2:50 pm54 °FFog.5 mph94%30.21 "Hg3 mi
2:20 pm54 °FFog.3 mph94%30.21 "Hg3 mi
1:50 pm54 °FFog.2 mph94%30.24 "Hg3 mi
1:20 pm54 °FFog.5 mph94%30.24 "Hg3 mi
12:50 pm54 °FFog.3 mph100%30.24 "Hg3 mi
12:20 pm54 °FFog.2 mph94%30.24 "Hg1 mi
11:50 am52 °FFog.1 mph100%30.24 "Hg3 mi
11:20 am52 °FFog.1 mph100%30.24 "Hg2 mi
10:50 am52 °FFog.3 mph94%30.21 "Hg1 mi
10:20 am52 °FFog.3 mph100%30.21 "Hg1 mi
9:50 am52 °FFog.2 mph94%30.21 "Hg1 mi
9:20 am52 °FFog.No wind100%30.21 "Hg2 mi
8:50 am48 °FFog.No wind100%30.21 "Hg3 mi
8:20 am46 °FFog.2 mph100%30.21 "Hg2 mi
7:50 am45 °FFog.5 mph100%30.21 "Hg1 mi
7:20 am46 °FFog.No wind100%30.21 "Hg1 mi
6:50 am45 °FFog.5 mph100%30.21 "Hg1 mi
6:20 am46 °FDense fog.1 mph100%30.21 "Hg0 mi
5:50 am46 °FClear.6 mph100%30.21 "Hg0 mi
5:20 am48 °FPassing clouds.5 mph100%30.21 "Hg3 mi
4:50 am50 °FPassing clouds.6 mph100%30.21 "Hg4 mi
4:20 am50 °FPassing clouds.5 mph100%30.21 "Hg4 mi
3:50 am50 °FOvercast.1 mph100%30.21 "Hg3 mi
3:20 am50 °FPassing clouds.5 mph94%30.21 "Hg4 mi
2:50 am50 °FPassing clouds.5 mph100%30.21 "Hg4 mi
2:20 am52 °FPassing clouds.6 mph94%30.21 "Hg4 mi
1:50 am50 °FPassing clouds.3 mph100%30.21 "Hg4 mi
1:20 am52 °FPassing clouds.5 mph94%30.21 "HgN/A
12:50 am52 °FPassing clouds.7 mph100%30.21 "HgN/A
12:20 am52 °FMostly cloudy.5 mph100%30.21 "HgN/A
11:50 pm
Mon, Oct 21
52 °FOvercast.6 mph100%30.18 "HgN/A
11:20 pm52 °FOvercast.5 mph100%30.18 "HgN/A
10:50 pm52 °FOvercast.3 mph100%30.18 "HgN/A
10:20 pm52 °FMostly cloudy.5 mph100%30.18 "HgN/A
Weather by CustomWeather, © 2019

See weather overview